KB2UHF-8 Weather Reports


Display with metric or nautical units.
time (UTC)temp
F
wind
direction
speed
MPH
gust
MPH
rain 1hr
in
rain 24hr
in
rain mn
in
humidity
%
barometer
mb
20260508110516 38 0.0 3.0 0.00 0.00 0.00 59 1009.7
20260508105516 38 0.0 2.0 0.00 0.00 0.00 60 1009.7
20260508104536 38 180 1.0 5.0 0.00 0.00 0.00 59 1009.7
20260508103516 38 180 1.0 4.0 0.00 0.00 0.00 59 1009.7
20260508102516 38 203 1.0 4.0 0.00 0.00 0.00 58 1009.8
20260508101516 38 180 1.0 4.0 0.00 0.00 0.00 59 1009.8
20260508100516 37 180 1.0 3.0 0.00 0.00 0.00 59 1009.8
20260508095516 38 158 2.0 4.0 0.00 0.00 0.00 59 1009.9
20260508094536 38 158 2.0 4.0 0.00 0.00 0.00 58 1009.9
20260508093516 39 180 2.0 3.0 0.00 0.00 0.00 57 1010.0
20260508092516 39 180 1.0 2.0 0.00 0.00 0.00 56 1010.2
20260508091516 39 180 1.0 3.0 0.00 0.00 0.00 56 1010.2
20260508090518 39 203 1.0 3.0 0.00 0.00 0.00 55 1010.4
20260508085516 39 180 1.0 4.0 0.00 0.00 0.00 55 1010.5
20260508084516 39 203 1.0 4.0 0.00 0.00 0.00 55 1010.2
20260508083536 39 180 1.0 3.0 0.00 0.00 0.00 55 1010.3
20260508082516 39 0.0 2.0 0.00 0.00 0.00 55 1010.4
20260508081516 39 180 1.0 2.0 0.00 0.00 0.00 54 1010.4
20260508080519 39 180 2.0 4.0 0.00 0.00 0.00 54 1010.4
20260508075517 39 158 1.0 2.0 0.00 0.00 0.00 54 1010.4
20260508074516 39 0.0 3.0 0.00 0.00 0.00 53 1010.4
20260508073516 40 0.0 3.0 0.00 0.00 0.00 51 1010.5
20260508072516 41 180 2.0 4.0 0.00 0.00 0.00 50 1010.6
20260508071516 40 158 1.0 2.0 0.00 0.00 0.00 49 1010.5
20260508070516 40 0.0 0.0 0.00 0.00 0.00 51 1010.7
20260508065516 40 0.0 3.0 0.00 0.00 0.00 51 1010.8
20260508064516 40 158 1.0 3.0 0.00 0.00 0.00 51 1010.9
20260508063516 39 180 1.0 4.0 0.00 0.00 0.00 52 1010.8
20260508062516 39 0.0 2.0 0.00 0.00 0.00 57 1011.0
20260508061516 40 0.0 2.0 0.00 0.00 0.00 54 1011.2
20260508060536 41 0.0 1.0 0.00 0.00 0.00 51 1011.1
20260508055516 42 180 3.0 5.0 0.00 0.00 0.00 50 1011.3
20260508054516 43 135 2.0 3.0 0.00 0.00 0.00 48 1011.4
20260508053516 43 135 3.0 4.0 0.00 0.00 0.00 45 1011.2
20260508052516 43 158 2.0 3.0 0.00 0.00 0.00 46 1011.4
20260508051516 43 158 2.0 3.0 0.00 0.00 0.00 45 1011.5
20260508050536 44 135 2.0 3.0 0.00 0.00 0.00 45 1011.6
20260508045516 45 135 3.0 4.0 0.00 0.00 0.00 42 1011.5
20260508044517 44 135 3.0 4.0 0.00 0.00 0.00 44 1011.4
20260508043518 45 135 3.0 4.0 0.00 0.00 0.00 41 1011.5
20260508042516 46 113 2.0 3.0 0.00 0.00 0.00 40 1011.6
20260508041518 46 113 2.0 3.0 0.00 0.00 0.00 40 1011.7
20260508040516 46 113 2.0 3.0 0.00 0.00 0.00 39 1011.8
20260508035537 47 113 2.0 3.0 0.00 0.00 0.00 38 1011.8
20260508034516 47 45 1.0 2.0 0.00 0.00 0.00 37 1011.8
20260508033516 47 0 1.0 2.0 0.00 0.00 0.00 37 1011.7
20260508032516 47 0.0 0.0 0.00 0.00 0.00 37 1011.8
20260508031537 47 0.0 0.0 0.00 0.00 0.00 37 1011.6
20260508030518 48 0 1.0 3.0 0.00 0.00 0.00 37 1011.7
20260508025516 48 0 1.0 3.0 0.00 0.00 0.00 36 1011.6
20260508024518 49 338 2.0 2.0 0.00 0.00 0.00 36 1011.5
20260508023516 49 338 2.0 2.0 0.00 0.00 0.00 36 1011.4
20260508022536 49 338 2.0 2.0 0.00 0.00 0.00 36 1011.3
20260508021517 49 338 2.0 3.0 0.00 0.00 0.00 37 1011.2
20260508020516 49 338 3.0 5.0 0.00 0.00 0.00 37 1011.0
20260508015516 50 338 3.0 5.0 0.00 0.00 0.00 36 1010.8
20260508014518 50 338 3.0 3.0 0.00 0.00 0.00 36 1010.7
20260508013516 50 338 3.0 4.0 0.00 0.00 0.00 37 1010.5
20260508012516 50 338 4.0 5.0 0.00 0.00 0.00 37 1010.5
20260508011516 50 338 4.0 5.0 0.00 0.00 0.00 38 1010.4
20260508010516 51 338 4.0 5.0 0.00 0.00 0.00 37 1010.4
20260508005516 52 338 4.0 8.0 0.00 0.00 0.00 37 1010.2
20260508004516 53 338 5.0 10.0 0.00 0.00 0.00 35 1010.0
20260508003536 53 338 5.0 9.0 0.00 0.00 0.00 34 1009.8
20260508002516 55 338 4.0 9.0 0.00 0.00 0.00 34 1009.8
20260508001518 55 293 4.0 10.0 0.00 0.00 0.00 32 1009.8
20260508000516 55 315 5.0 10.0 0.00 0.00 0.00 32 1009.7
20260507235516 56 338 5.0 11.0 0.00 0.00 0.00 32 1009.6
20260507234516 56 315 7.0 11.0 0.00 0.00 0.00 30 1009.8
20260507233518 57 315 5.0 11.0 0.00 0.00 0.00 30 1009.9
20260507232558 57 293 7.0 15.0 0.00 0.00 0.00 28 1009.7
20260507231516 56 293 10.0 15.0 0.00 0.00 0.00 29 1009.7
20260507230516 57 293 6.0 14.0 0.00 0.00 0.00 29 1009.8
20260507225516 57 293 4.0 13.0 0.00 0.00 0.00 31 1009.8
20260507224516 58 293 6.0 15.0 0.00 0.00 0.00 30 1009.9
20260507223518 57 293 7.0 12.0 0.00 0.00 0.00 31 1009.9
20260507222516 57 270 6.0 12.0 0.00 0.00 0.00 32 1009.7
20260507221516 57 293 8.0 19.0 0.00 0.00 0.00 32 1009.7
20260507220537 57 270 9.0 16.0 0.00 0.00 0.00 30 1009.8
20260507215516 57 293 9.0 16.0 0.00 0.00 0.00 32 1009.6
20260507214516 57 270 10.0 20.0 0.00 0.00 0.00 32 1009.6
20260507213516 58 270 7.0 17.0 0.00 0.00 0.00 33 1009.6
20260507212516 57 270 9.0 18.0 0.00 0.00 0.00 35 1009.7
20260507211536 58 293 6.0 16.0 0.00 0.00 0.00 38 1009.6
20260507210517 57 315 9.0 16.0 0.00 0.00 0.00 35 1009.5
20260507205516 57 293 6.0 14.0 0.00 0.00 0.00 37 1009.6
20260507204516 56 270 7.0 13.0 0.00 0.00 0.00 36 1009.7
20260507203516 56 270 6.0 11.0 0.00 0.00 0.00 41 1009.8
20260507202517 56 315 8.0 15.0 0.00 0.00 0.00 42 1009.9
20260507201517 57 315 7.0 13.0 0.00 0.00 0.00 40 1010.1
20260507200516 56 315 6.0 14.0 0.00 0.00 0.00 40 1010.1
20260507195536 55 293 8.0 16.0 0.00 0.00 0.00 40 1010.3
20260507194516 56 270 8.0 20.0 0.00 0.00 0.00 37 1010.2
20260507193516 56 270 5.0 12.0 0.00 0.00 0.00 41 1010.3
20260507192516 55 338 7.0 15.0 0.00 0.00 0.00 42 1010.3
20260507191516 54 293 4.0 9.0 0.00 0.00 0.00 43 1010.4
20260507190516 54 315 8.0 18.0 0.00 0.00 0.00 45 1010.5
20260507185516 54 225 5.0 11.0 0.00 0.00 0.00 42 1010.6
20260507184516 54 270 5.0 12.0 0.00 0.00 0.00 42 1010.7
20260507183516 53 270 6.0 18.0 0.00 0.00 0.00 44 1010.8
20260507182516 54 270 7.0 14.0 0.00 0.00 0.00 45 1011.0
20260507181516 53 248 5.0 11.0 0.00 0.00 0.00 45 1010.9
20260507180515 52 293 4.0 9.0 0.00 0.00 0.00 46 1011.1
20260507175516 53 270 4.0 13.0 0.00 0.00 0.00 45 1011.2
20260507174515 53 338 3.0 9.0 0.00 0.00 0.00 47 1011.4
20260507173517 52 270 5.0 12.0 0.00 0.00 0.00 45 1011.5
20260507172535 52 225 6.0 11.0 0.00 0.00 0.00 46 1011.7
20260507171515 52 0 3.0 5.0 0.00 0.00 0.00 48 1011.7
20260507170536 51 113 4.0 8.0 0.00 0.00 0.00 50 1011.9
20260507165536 50 90 5.0 10.0 0.00 0.00 0.00 52 1012.0
20260507164515 50 68 6.0 12.0 0.00 0.00 0.00 50 1012.0
20260507163515 49 90 6.0 9.0 0.00 0.00 0.00 50 1011.9
20260507162536 49 90 3.0 10.0 0.00 0.00 0.00 51 1011.9
20260507161516 49 315 3.0 8.0 0.00 0.00 0.00 48 1011.9
20260507160515 49 0 2.0 5.0 0.00 0.00 0.00 51 1012.2
20260507155516 49 68 5.0 9.0 0.00 0.00 0.00 48 1012.3
20260507154517 49 45 3.0 9.0 0.00 0.00 0.00 50 1012.6
20260507153535 49 270 2.0 6.0 0.00 0.00 0.00 46 1012.6
20260507152516 50 135 3.0 6.0 0.00 0.00 0.00 48 1012.6
20260507151515 48 293 4.0 7.0 0.00 0.00 0.00 49 1012.7
20260507150515 48 315 3.0 5.0 0.00 0.00 0.00 50 1012.9
20260507145515 48 45 3.0 7.0 0.00 0.00 0.00 50 1013.1
20260507144515 48 90 1.0 7.0 0.00 0.00 0.00 53 1013.2
20260507143515 48 248 2.0 4.0 0.00 0.00 0.00 52 1013.1
20260507142515 47 158 3.0 6.0 0.00 0.00 0.00 56 1013.3
20260507141516 46 0.0 3.0 0.00 0.00 0.00 57 1013.6
20260507140515 45 113 1.0 5.0 0.00 0.00 0.00 61 1013.6
20260507135636 43 113 1.0 3.0 0.00 0.00 0.00 63 1013.6
20260507134515 43 90 2.0 3.0 0.00 0.00 0.00 63 1013.5
20260507133515 41 0.0 3.0 0.00 0.00 0.00 66 1013.6
20260507132515 40 113 2.0 4.0 0.00 0.00 0.00 68 1013.5
20260507131515 39 203 1.0 2.0 0.00 0.00 0.00 69 1013.5
20260507130515 39 248 1.0 4.0 0.00 0.00 0.00 69 1013.9
20260507125515 39 180 1.0 4.0 0.00 0.00 0.00 70 1013.9
20260507124517 38 158 1.0 4.0 0.00 0.00 0.00 71 1013.8
20260507123517 38 158 1.0 5.0 0.00 0.00 0.00 71 1013.7
20260507122517 38 180 1.0 5.0 0.00 0.00 0.00 72 1013.6
20260507121517 37 0.0 2.0 0.00 0.00 0.00 73 1013.5
20260507120519 35 0.0 0.0 0.00 0.00 0.00 73 1013.6
20260507115517 35 0.0 2.0 0.00 0.00 0.00 75 1013.5
20260507114517 35 225 1.0 4.0 0.00 0.00 0.00 74 1013.6
20260507113517 35 225 3.0 6.0 0.00 0.00 0.00 73 1013.6
20260507112517 35 225 3.0 9.0 0.00 0.00 0.00 73 1013.6
20260507111517 35 225 4.0 8.0 0.00 0.00 0.00 72 1013.6